| time (UTC) | temp F | wind direction | speed MPH | gust MPH | rain 1hr in | rain 24hr in | rain mn in | humidity % | barometer mb |
| 20260507010207 | 58 | 204 | 2.0 | 7.0 | 0.00 | 0.26 | 0.26 | 97 | 1006.6 |
| 20260507005708 | 58 | 189 | 2.0 | 7.0 | 0.00 | 0.26 | 0.26 | 97 | 1006.4 |
| 20260507005207 | 58 | 210 | 2.0 | 4.0 | 0.00 | 0.26 | 0.26 | 97 | 1006.4 |
| 20260507004713 | 58 | 195 | 2.0 | 8.0 | 0.00 | 0.26 | 0.26 | 97 | 1006.2 |
| 20260507004706 | 58 | 204 | 1.0 | 6.0 | 0.00 | 0.26 | 0.26 | 97 | 1006.3 |
| 20260507004330 | 58 | 171 | 2.0 | 8.0 | 0.00 | 0.26 | 0.26 | 97 | 1006.4 |
| 20260507003829 | 58 | 168 | 2.0 | 6.0 | 0.00 | 0.26 | 0.26 | 97 | 1006.6 |
| 20260507003335 | 58 | 175 | 2.0 | 6.0 | 0.00 | 0.26 | 0.26 | 97 | 1006.6 |
| 20260507003204 | 58 | 211 | 2.0 | 8.0 | 0.00 | 0.26 | 0.26 | 97 | 1006.5 |
| 20260507001706 | 58 | 143 | 2.0 | 6.0 | 0.00 | 0.26 | 0.26 | 97 | 1006.5 |
| 20260507001205 | 58 | 251 | 2.0 | 8.0 | 0.00 | 0.26 | 0.26 | 97 | 1006.6 |
| 20260507000701 | 58 | 182 | 2.0 | 8.0 | 0.00 | 0.26 | 0.26 | 97 | 1006.6 |
| 20260507000209 | 58 | 187 | 2.0 | 6.0 | 0.00 | 0.26 | 0.26 | 97 | 1006.5 |
| 20260507000205 | 58 | 226 | 2.0 | 6.0 | 0.00 | 0.26 | 0.26 | 97 | 1006.6 |
| 20260506235202 | 58 | 233 | 2.0 | 6.0 | 0.00 | 0.26 | 0.26 | 96 | 1006.4 |
| 20260506234702 | 58 | 168 | 2.0 | 7.0 | 0.00 | 0.26 | 0.26 | 96 | 1006.4 |
| 20260506234200 | 58 | 218 | 1.0 | 7.0 | 0.00 | 0.26 | 0.26 | 96 | 1006.2 |
| 20260506233705 | 58 | 222 | 2.0 | 6.0 | 0.01 | 0.26 | 0.26 | 96 | 1006.3 |
| 20260506233658 | 58 | 209 | 1.0 | 6.0 | 0.01 | 0.26 | 0.26 | 96 | 1006.3 |
| 20260506232700 | 58 | 221 | 2.0 | 5.0 | 0.01 | 0.26 | 0.26 | 96 | 1006.2 |
| 20260506232201 | 58 | 211 | 2.0 | 8.0 | 0.01 | 0.26 | 0.26 | 96 | 1006.1 |
| 20260506232156 | 58 | 193 | 2.0 | 5.0 | 0.01 | 0.26 | 0.26 | 96 | 1006.2 |
| 20260506231201 | 58 | 178 | 2.0 | 7.0 | 0.02 | 0.26 | 0.26 | 96 | 1006.0 |
| 20260506231157 | 58 | 209 | 2.0 | 8.0 | 0.02 | 0.26 | 0.26 | 96 | 1006.1 |
| 20260506230205 | 59 | 212 | 2.0 | 8.0 | 0.05 | 0.26 | 0.26 | 96 | 1005.9 |
| 20260506230157 | 58 | 197 | 1.0 | 7.0 | 0.02 | 0.26 | 0.26 | 96 | 1005.9 |
| 20260506225657 | 58 | 189 | 2.0 | 7.0 | 0.03 | 0.26 | 0.26 | 96 | 1005.9 |
| 20260506225157 | 59 | 196 | 3.0 | 8.0 | 0.04 | 0.26 | 0.26 | 96 | 1005.9 |
| 20260506224155 | 59 | 228 | 1.0 | 6.0 | 0.05 | 0.26 | 0.26 | 96 | 1005.8 |
| 20260506223656 | 59 | 218 | 1.0 | 5.0 | 0.04 | 0.25 | 0.25 | 96 | 1005.9 |
| 20260506223156 | 59 | 171 | 1.0 | 5.0 | 0.04 | 0.25 | 0.25 | 96 | 1005.7 |
| 20260506222657 | 59 | 206 | 1.0 | 8.0 | 0.04 | 0.25 | 0.25 | 96 | 1005.8 |
| 20260506222157 | 59 | 228 | 2.0 | 8.0 | 0.04 | 0.25 | 0.25 | 96 | 1005.8 |
| 20260506221656 | 59 | 209 | 1.0 | 6.0 | 0.04 | 0.25 | 0.25 | 96 | 1005.8 |
| 20260506221156 | 59 | 211 | 1.0 | 5.0 | 0.03 | 0.24 | 0.24 | 96 | 1005.8 |
| 20260506220656 | 59 | 185 | 2.0 | 5.0 | 0.04 | 0.24 | 0.24 | 96 | 1005.9 |
| 20260506220159 | 59 | 228 | 2.0 | 5.0 | 0.04 | 0.24 | 0.24 | 96 | 1005.9 |
| 20260506220155 | 59 | 196 | 2.0 | 7.0 | 0.03 | 0.23 | 0.23 | 96 | 1005.8 |
| 20260506215154 | 59 | 235 | 2.0 | 8.0 | 0.03 | 0.22 | 0.22 | 96 | 1005.8 |
| 20260506214658 | 59 | 203 | 3.0 | 7.0 | 0.04 | 0.21 | 0.21 | 96 | 1005.9 |
| 20260506214654 | 59 | 155 | 2.0 | 8.0 | 0.03 | 0.21 | 0.21 | 96 | 1005.9 |
| 20260506213653 | 59 | 221 | 2.0 | 6.0 | 0.05 | 0.21 | 0.21 | 96 | 1005.9 |
| 20260506213151 | 59 | 160 | 2.0 | 8.0 | 0.07 | 0.21 | 0.21 | 96 | 1005.9 |
| 20260506212650 | 59 | 185 | 1.0 | 8.0 | 0.07 | 0.21 | 0.21 | 96 | 1005.9 |
| 20260506212152 | 59 | 215 | 1.0 | 7.0 | 0.08 | 0.21 | 0.21 | 96 | 1006.0 |
| 20260506211649 | 59 | 192 | 2.0 | 7.0 | 0.08 | 0.21 | 0.21 | 96 | 1006.0 |
| 20260506211146 | 59 | 195 | 2.0 | 7.0 | 0.08 | 0.21 | 0.21 | 96 | 1006.0 |
| 20260506210653 | 59 | 183 | 2.0 | 7.0 | 0.08 | 0.20 | 0.20 | 96 | 1006.3 |
| 20260506210644 | 59 | 171 | 2.0 | 7.0 | 0.07 | 0.20 | 0.20 | 96 | 1006.1 |
| 20260506210146 | 59 | 215 | 1.0 | 4.0 | 0.07 | 0.20 | 0.20 | 96 | 1006.2 |
| 20260506205144 | 59 | 199 | 2.0 | 8.0 | 0.07 | 0.19 | 0.19 | 95 | 1006.3 |
| 20260506204646 | 59 | 227 | 2.0 | 8.0 | 0.06 | 0.18 | 0.19 | 95 | 1006.4 |
| 20260506204143 | 59 | 205 | 2.0 | 8.0 | 0.05 | 0.17 | 0.17 | 95 | 1006.4 |
| 20260506203643 | 59 | 180 | 3.0 | 7.0 | 0.04 | 0.16 | 0.16 | 95 | 1006.5 |
| 20260506203144 | 59 | 246 | 2.0 | 7.0 | 0.02 | 0.14 | 0.14 | 95 | 1006.5 |
| 20260506202642 | 59 | 183 | 1.0 | 7.0 | 0.02 | 0.14 | 0.14 | 95 | 1006.5 |
| 20260506202143 | 59 | 215 | 2.0 | 7.0 | 0.01 | 0.13 | 0.13 | 95 | 1006.5 |
| 20260506201643 | 59 | 207 | 2.0 | 6.0 | 0.01 | 0.13 | 0.13 | 95 | 1006.6 |
| 20260506201144 | 59 | 197 | 2.0 | 7.0 | 0.01 | 0.13 | 0.13 | 95 | 1006.5 |
| 20260506200645 | 59 | 223 | 2.0 | 7.0 | 0.01 | 0.13 | 0.13 | 94 | 1006.5 |
| 20260506200142 | 59 | 198 | 2.0 | 10.0 | 0.02 | 0.13 | 0.13 | 94 | 1006.6 |
| 20260506195643 | 59 | 192 | 2.0 | 10.0 | 0.01 | 0.12 | 0.12 | 94 | 1006.7 |
| 20260506195145 | 59 | 239 | 1.0 | 5.0 | 0.02 | 0.12 | 0.12 | 95 | 1006.8 |
| 20260506194642 | 59 | 234 | 3.0 | 9.0 | 0.02 | 0.12 | 0.12 | 94 | 1006.8 |
| 20260506194147 | 59 | 212 | 3.0 | 10.0 | 0.03 | 0.12 | 0.12 | 94 | 1006.8 |
| 20260506194142 | 59 | 228 | 4.0 | 10.0 | 0.02 | 0.12 | 0.12 | 94 | 1006.7 |
| 20260506193143 | 59 | 215 | 3.0 | 10.0 | 0.03 | 0.12 | 0.12 | 94 | 1006.7 |
| 20260506192651 | 59 | 207 | 3.0 | 8.0 | 0.04 | 0.12 | 0.12 | 94 | 1007.0 |
| 20260506192643 | 59 | 206 | 3.0 | 10.0 | 0.04 | 0.12 | 0.12 | 94 | 1006.9 |
| 20260506192310 | 59 | 193 | 3.0 | 8.0 | 0.04 | 0.12 | 0.12 | 94 | 1007.0 |
| 20260506191144 | 59 | 201 | 2.0 | 8.0 | 0.04 | 0.12 | 0.12 | 93 | 1006.9 |
| 20260506190641 | 60 | 168 | 2.0 | 9.0 | 0.05 | 0.12 | 0.12 | 93 | 1006.9 |
| 20260506190141 | 60 | 169 | 3.0 | 11.0 | 0.04 | 0.11 | 0.12 | 93 | 1007.0 |
| 20260506185642 | 60 | 153 | 3.0 | 11.0 | 0.04 | 0.11 | 0.11 | 93 | 1007.1 |
| 20260506185143 | 60 | 191 | 2.0 | 8.0 | 0.03 | 0.10 | 0.10 | 93 | 1007.1 |
| 20260506184641 | 60 | 180 | 2.0 | 8.0 | 0.04 | 0.10 | 0.10 | 93 | 1007.1 |
| 20260506184140 | 60 | 212 | 2.0 | 6.0 | 0.04 | 0.10 | 0.10 | 93 | 1007.3 |
| 20260506183642 | 60 | 234 | 2.0 | 6.0 | 0.04 | 0.09 | 0.09 | 93 | 1007.4 |
| 20260506183140 | 60 | 254 | 1.0 | 5.0 | 0.04 | 0.09 | 0.09 | 93 | 1007.0 |
| 20260506182640 | 60 | 206 | 1.0 | 7.0 | 0.04 | 0.08 | 0.08 | 93 | 1006.8 |
| 20260506182141 | 61 | 235 | 1.0 | 7.0 | 0.05 | 0.08 | 0.08 | 94 | 1006.9 |
| 20260506181648 | 61 | 230 | 1.0 | 8.0 | 0.06 | 0.08 | 0.08 | 93 | 1006.8 |
| 20260506181642 | 61 | 223 | 1.0 | 8.0 | 0.05 | 0.08 | 0.08 | 93 | 1006.8 |
| 20260506180644 | 61 | 254 | 0.0 | 6.0 | 0.07 | 0.07 | 0.07 | 93 | 1007.4 |
| 20260506180638 | 61 | 226 | 1.0 | 6.0 | 0.06 | 0.07 | 0.07 | 93 | 1007.3 |
| 20260506175639 | 61 | 165 | 1.0 | 8.0 | 0.07 | 0.07 | 0.07 | 93 | 1007.5 |
| 20260506175140 | 61 | 215 | 1.0 | 8.0 | 0.07 | 0.07 | 0.07 | 92 | 1007.6 |
| 20260506174637 | 61 | 205 | 0.0 | 6.0 | 0.06 | 0.06 | 0.06 | 92 | 1007.8 |
| 20260506174142 | 61 | 183 | 1.0 | 4.0 | 0.05 | 0.05 | 0.05 | 91 | 1008.1 |
| 20260506174137 | 61 | 184 | 0.0 | 3.0 | 0.06 | 0.06 | 0.06 | 92 | 1007.9 |
| 20260506173139 | 61 | 182 | 0.0 | 4.0 | 0.05 | 0.05 | 0.05 | 91 | 1008.2 |
| 20260506172636 | 61 | 178 | 1.0 | 6.0 | 0.04 | 0.04 | 0.04 | 89 | 1008.3 |
| 20260506172136 | 62 | 179 | 2.0 | 8.0 | 0.03 | 0.03 | 0.03 | 88 | 1008.4 |
| 20260506171638 | 62 | 193 | 3.0 | 9.0 | 0.03 | 0.03 | 0.03 | 87 | 1008.6 |
| 20260506171137 | 63 | 216 | 3.0 | 11.0 | 0.02 | 0.02 | 0.02 | 85 | 1008.7 |
| 20260506170634 | 64 | 221 | 3.0 | 11.0 | 0.01 | 0.01 | 0.01 | 83 | 1008.8 |
| 20260506170134 | 65 | 230 | 3.0 | 13.0 | 0.00 | 0.00 | 0.00 | 82 | 1008.7 |
| 20260506165638 | 66 | 158 | 4.0 | 10.0 | 0.00 | 0.00 | 0.00 | 77 | 1008.5 |
| 20260506165634 | 65 | 240 | 3.0 | 13.0 | 0.00 | 0.00 | 0.00 | 79 | 1008.5 |
| 20260506164632 | 66 | 177 | 5.0 | 14.0 | 0.00 | 0.00 | 0.00 | 75 | 1008.4 |
| 20260506164137 | 67 | 226 | 5.0 | 15.0 | 0.00 | 0.00 | 0.00 | 73 | 1008.2 |
| 20260506164132 | 66 | 213 | 5.0 | 14.0 | 0.00 | 0.00 | 0.00 | 74 | 1008.2 |
| 20260506163128 | 67 | 149 | 5.0 | 15.0 | 0.00 | 0.00 | 0.00 | 74 | 1008.2 |
| 20260506162629 | 67 | 197 | 5.0 | 15.0 | 0.00 | 0.00 | 0.00 | 72 | 1008.2 |
| 20260506162134 | 68 | 170 | 5.0 | 13.0 | 0.00 | 0.00 | 0.00 | 72 | 1008.3 |
| 20260506162128 | 67 | 246 | 4.0 | 13.0 | 0.00 | 0.00 | 0.00 | 74 | 1008.2 |
| 20260506161126 | 68 | 139 | 5.0 | 13.0 | 0.00 | 0.00 | 0.00 | 72 | 1008.4 |
| 20260506160624 | 68 | 185 | 4.0 | 12.0 | 0.00 | 0.00 | 0.00 | 72 | 1008.5 |
| 20260506160126 | 67 | 232 | 4.0 | 12.0 | 0.00 | 0.00 | 0.00 | 72 | 1008.5 |
| 20260506155626 | 67 | 189 | 4.0 | 13.0 | 0.00 | 0.00 | 0.00 | 72 | 1008.7 |
| 20260506155122 | 68 | 212 | 3.0 | 13.0 | 0.00 | 0.00 | 0.00 | 72 | 1008.6 |
| 20260506154621 | 67 | 190 | 3.0 | 12.0 | 0.00 | 0.00 | 0.00 | 73 | 1008.6 |
| 20260506154125 | 67 | 192 | 4.0 | 10.0 | 0.00 | 0.00 | 0.00 | 72 | 1008.6 |
| 20260506154120 | 67 | 193 | 4.0 | 12.0 | 0.00 | 0.00 | 0.00 | 73 | 1008.6 |
| 20260506153121 | 67 | 200 | 3.0 | 10.0 | 0.00 | 0.00 | 0.00 | 72 | 1008.8 |
| 20260506152616 | 67 | 237 | 3.0 | 11.0 | 0.00 | 0.00 | 0.00 | 73 | 1008.7 |
| 20260506152126 | 67 | 219 | 3.0 | 9.0 | 0.00 | 0.00 | 0.00 | 74 | 1008.7 |
| 20260506152117 | 67 | 204 | 4.0 | 11.0 | 0.00 | 0.00 | 0.00 | 73 | 1008.7 |
| 20260506151116 | 67 | 214 | 3.0 | 13.0 | 0.00 | 0.00 | 0.00 | 74 | 1008.8 |
| 20260506150617 | 67 | 170 | 4.0 | 13.0 | 0.00 | 0.00 | 0.00 | 74 | 1008.8 |
| 20260506150115 | 66 | 231 | 3.0 | 12.0 | 0.00 | 0.00 | 0.00 | 75 | 1008.9 |
| 20260506145619 | 66 | 215 | 4.0 | 10.0 | 0.00 | 0.00 | 0.00 | 75 | 1009.0 |
| 20260506145614 | 66 | 170 | 3.0 | 12.0 | 0.00 | 0.00 | 0.00 | 75 | 1009.0 |
| 20260506144613 | 66 | 194 | 3.0 | 10.0 | 0.00 | 0.00 | 0.00 | 75 | 1009.1 |
| 20260506144112 | 66 | 220 | 4.0 | 12.0 | 0.00 | 0.00 | 0.00 | 76 | 1009.1 |
| 20260506143617 | 65 | 181 | 4.0 | 12.0 | 0.00 | 0.00 | 0.00 | 75 | 1009.2 |
| 20260506143612 | 66 | 162 | 4.0 | 12.0 | 0.00 | 0.00 | 0.00 | 75 | 1009.1 |
| 20260506142610 | 65 | 265 | 5.0 | 12.0 | 0.00 | 0.00 | 0.00 | 76 | 1009.2 |
| 20260506142110 | 65 | 176 | 4.0 | 12.0 | 0.00 | 0.00 | 0.00 | 76 | 1009.2 |
| 20260506141611 | 65 | 199 | 3.0 | 10.0 | 0.00 | 0.00 | 0.00 | 77 | 1009.3 |
| 20260506141114 | 65 | 220 | 4.0 | 10.0 | 0.00 | 0.00 | 0.00 | 77 | 1009.3 |
| 20260506141109 | 65 | 167 | 4.0 | 10.0 | 0.00 | 0.00 | 0.00 | 76 | 1009.2 |
| 20260506140732 | 65 | 222 | 4.0 | 10.0 | 0.00 | 0.00 | 0.00 | 76 | 1009.2 |
| 20260506135605 | 65 | 163 | 5.0 | 9.0 | 0.00 | 0.00 | 0.00 | 77 | 1009.1 |
| 20260506135104 | 65 | 126 | 4.0 | 12.0 | 0.00 | 0.00 | 0.00 | 78 | 1009.1 |
| 20260506134605 | 65 | 221 | 4.0 | 12.0 | 0.00 | 0.00 | 0.00 | 77 | 1009.0 |
| 20260506134105 | 65 | 232 | 4.0 | 10.0 | 0.00 | 0.00 | 0.00 | 78 | 1009.0 |
| 20260506133604 | 65 | 155 | 5.0 | 13.0 | 0.00 | 0.00 | 0.00 | 78 | 1008.9 |
| 20260506133107 | 65 | 249 | 4.0 | 13.0 | 0.00 | 0.00 | 0.00 | 78 | 1008.9 |
| 20260506132604 | 64 | 206 | 4.0 | 9.0 | 0.00 | 0.00 | 0.00 | 80 | 1009.0 |
| 20260506132107 | 64 | 234 | 4.0 | 14.0 | 0.00 | 0.00 | 0.00 | 80 | 1009.1 |
| 20260506132103 | 64 | 223 | 4.0 | 11.0 | 0.00 | 0.00 | 0.00 | 79 | 1009.2 |
| 20260506131100 | 64 | 180 | 3.0 | 14.0 | 0.00 | 0.00 | 0.00 | 80 | 1009.2 |
| 20260506130601 | 64 | 215 | 2.0 | 8.0 | 0.00 | 0.00 | 0.00 | 81 | 1009.1 |
| 20260506125559 | 63 | 176 | 4.0 | 15.0 | 0.00 | 0.00 | 0.00 | 80 | 1009.4 |
| 20260506125100 | 64 | 198 | 5.0 | 12.0 | 0.00 | 0.00 | 0.00 | 80 | 1009.6 |
| 20260506124557 | 64 | 162 | 4.0 | 11.0 | 0.00 | 0.00 | 0.00 | 80 | 1009.8 |
| 20260506124058 | 64 | 146 | 3.0 | 11.0 | 0.00 | 0.00 | 0.00 | 80 | 1009.6 |
| 20260506123557 | 64 | 234 | 3.0 | 11.0 | 0.00 | 0.00 | 0.00 | 81 | 1009.7 |
| 20260506123056 | 63 | 226 | 4.0 | 11.0 | 0.00 | 0.00 | 0.00 | 81 | 1009.7 |
| 20260506122558 | 63 | 207 | 4.0 | 11.0 | 0.00 | 0.00 | 0.00 | 82 | 1009.7 |
| 20260506122102 | 63 | 231 | 4.0 | 11.0 | 0.00 | 0.00 | 0.00 | 82 | 1009.4 |
| 20260506122058 | 63 | 206 | 4.0 | 11.0 | 0.00 | 0.00 | 0.00 | 81 | 1009.5 |
| 20260506121055 | 63 | 178 | 3.0 | 10.0 | 0.00 | 0.00 | 0.00 | 81 | 1009.4 |
| 20260506120554 | 62 | 218 | 2.0 | 8.0 | 0.00 | 0.00 | 0.00 | 82 | 1009.6 |
| 20260506120100 | 62 | 235 | 4.0 | 11.0 | 0.00 | 0.00 | 0.00 | 82 | 1009.5 |
| 20260506120056 | 62 | 175 | 3.0 | 11.0 | 0.00 | 0.00 | 0.00 | 82 | 1009.5 |
| 20260506115054 | 62 | 232 | 3.0 | 11.0 | 0.00 | 0.00 | 0.00 | 83 | 1009.7 |
| 20260506114556 | 62 | 216 | 3.0 | 9.0 | 0.00 | 0.00 | 0.00 | 83 | 1009.7 |
| 20260506114054 | 62 | 191 | 4.0 | 10.0 | 0.00 | 0.00 | 0.00 | 83 | 1009.6 |
| 20260506113553 | 61 | 165 | 3.0 | 10.0 | 0.00 | 0.00 | 0.00 | 83 | 1009.5 |
| 20260506113052 | 61 | 232 | 3.0 | 12.0 | 0.00 | 0.00 | 0.00 | 84 | 1009.5 |
| 20260506112552 | 61 | 210 | 3.0 | 12.0 | 0.00 | 0.00 | 0.00 | 83 | 1009.4 |
| 20260506112055 | 61 | 222 | 2.0 | 10.0 | 0.00 | 0.00 | 0.00 | 84 | 1009.7 |
| 20260506111553 | 61 | 218 | 1.0 | 8.0 | 0.00 | 0.00 | 0.00 | 84 | 1010.0 |
| 20260506111053 | 61 | 174 | 2.0 | 8.0 | 0.00 | 0.00 | 0.00 | 84 | 1010.0 |
| 20260506110552 | 60 | 186 | 2.0 | 7.0 | 0.00 | 0.00 | 0.00 | 84 | 1009.9 |
| 20260506110054 | 60 | 212 | 2.0 | 8.0 | 0.00 | 0.00 | 0.00 | 84 | 1009.9 |
| 20260506105552 | 60 | 145 | 2.0 | 8.0 | 0.00 | 0.00 | 0.00 | 84 | 1009.9 |
| 20260506105052 | 61 | 182 | 2.0 | 10.0 | 0.00 | 0.00 | 0.00 | 84 | 1010.0 |
| 20260506104553 | 60 | 179 | 2.0 | 10.0 | 0.00 | 0.00 | 0.00 | 84 | 1010.0 |
| 20260506104053 | 60 | 231 | 2.0 | 8.0 | 0.00 | 0.00 | 0.00 | 84 | 1009.9 |
| 20260506103551 | 60 | 195 | 2.0 | 8.0 | 0.00 | 0.00 | 0.00 | 85 | 1009.7 |
| 20260506103049 | 60 | 189 | 1.0 | 5.0 | 0.00 | 0.00 | 0.00 | 85 | 1009.5 |
| 20260506102554 | 60 | 189 | 0.0 | 2.0 | 0.00 | 0.00 | 0.00 | 85 | 1009.5 |
| 20260506102549 | 60 | 222 | 1.0 | 5.0 | 0.00 | 0.00 | 0.00 | 85 | 1009.5 |
| 20260506101550 | 60 | 190 | 1.0 | 8.0 | 0.00 | 0.00 | 0.00 | 85 | 1009.6 |
| 20260506101051 | 60 | 184 | 1.0 | 8.0 | 0.00 | 0.00 | 0.00 | 85 | 1009.5 |
| 20260506100547 | 59 | 198 | 1.0 | 5.0 | 0.00 | 0.00 | 0.00 | 85 | 1009.5 |
| 20260506100048 | 59 | 178 | 1.0 | 5.0 | 0.00 | 0.00 | 0.00 | 85 | 1009.6 |
| 20260506095547 | 59 | 220 | 1.0 | 5.0 | 0.00 | 0.00 | 0.00 | 85 | 1009.6 |
| 20260506095047 | 59 | 212 | 1.0 | 12.0 | 0.00 | 0.00 | 0.00 | 85 | 1009.5 |
| 20260506094553 | 59 | 209 | 0.0 | 3.0 | 0.00 | 0.00 | 0.00 | 84 | 1009.6 |
| 20260506094546 | 59 | 215 | 1.0 | 12.0 | 0.00 | 0.00 | 0.00 | 84 | 1009.6 |
| 20260506093544 | 60 | 210 | 1.0 | 7.0 | 0.00 | 0.00 | 0.00 | 84 | 1009.6 |
| 20260506093045 | 60 | 210 | 1.0 | 7.0 | 0.00 | 0.00 | 0.00 | 84 | 1009.6 |
| 20260506092546 | 60 | 193 | 1.0 | 5.0 | 0.00 | 0.00 | 0.00 | 83 | 1009.6 |
| 20260506092046 | 60 | 200 | 1.0 | 4.0 | 0.00 | 0.00 | 0.00 | 83 | 1009.5 |
| 20260506091544 | 60 | 169 | 0.0 | 4.0 | 0.00 | 0.00 | 0.00 | 83 | 1009.6 |
| 20260506091043 | 60 | 168 | 1.0 | 4.0 | 0.00 | 0.00 | 0.00 | 82 | 1009.6 |
| 20260506090543 | 60 | 202 | 1.0 | 6.0 | 0.00 | 0.00 | 0.00 | 82 | 1009.5 |
| 20260506090043 | 60 | 188 | 2.0 | 6.0 | 0.00 | 0.00 | 0.00 | 82 | 1009.5 |
| 20260506085542 | 60 | 175 | 1.0 | 6.0 | 0.00 | 0.00 | 0.00 | 82 | 1009.6 |
| 20260506085045 | 60 | 201 | 1.0 | 6.0 | 0.00 | 0.00 | 0.00 | 81 | 1009.5 |
| 20260506084542 | 61 | 255 | 1.0 | 8.0 | 0.00 | 0.00 | 0.00 | 81 | 1009.6 |
| 20260506084042 | 61 | 258 | 1.0 | 8.0 | 0.00 | 0.00 | 0.00 | 81 | 1009.6 |
| 20260506083542 | 61 | 203 | 2.0 | 5.0 | 0.00 | 0.00 | 0.00 | 80 | 1009.6 |
| 20260506083047 | 61 | 221 | 2.0 | 8.0 | 0.00 | 0.00 | 0.00 | 81 | 1009.6 |
| 20260506083042 | 61 | 225 | 2.0 | 8.0 | 0.00 | 0.00 | 0.00 | 81 | 1009.5 |
| 20260506082704 | 61 | 243 | 2.0 | 7.0 | 0.00 | 0.00 | 0.00 | 81 | 1009.5 |
| 20260506081547 | 60 | 224 | 2.0 | 9.0 | 0.00 | 0.00 | 0.00 | 81 | 1009.5 |
| 20260506081539 | 61 | 226 | 2.0 | 7.0 | 0.00 | 0.00 | 0.00 | 81 | 1009.5 |
| 20260506081040 | 60 | 212 | 2.0 | 9.0 | 0.00 | 0.00 | 0.00 | 81 | 1009.6 |
| 20260506073157 | 61 | 193 | 2.0 | 6.0 | 0.00 | 0.00 | 0.00 | 80 | 1009.7 |
| 20260506072037 | 61 | 187 | 3.0 | 9.0 | 0.00 | 0.00 | 0.00 | 79 | 1009.8 |
| 20260506071536 | 61 | 216 | 4.0 | 9.0 | 0.00 | 0.00 | 0.00 | 80 | 1009.8 |
| 20260506071036 | 61 | 257 | 3.0 | 14.0 | 0.00 | 0.00 | 0.00 | 80 | 1009.8 |
| 20260506070534 | 61 | 170 | 3.0 | 14.0 | 0.00 | 0.00 | 0.00 | 80 | 1009.7 |
| 20260506062028 | 61 | 164 | 2.0 | 8.0 | 0.00 | 0.00 | 0.00 | 79 | 1009.6 |
| 20260506061528 | 62 | 287 | 2.0 | 8.0 | 0.00 | 0.00 | 0.00 | 78 | 1009.6 |
| 20260506061030 | 62 | 207 | 2.0 | 7.0 | 0.00 | 0.00 | 0.00 | 78 | 1009.6 |
| 20260506060529 | 62 | 194 | 3.0 | 7.0 | 0.00 | 0.00 | 0.00 | 78 | 1009.6 |
| 20260506051024 | 63 | 216 | 4.0 | 14.0 | 0.00 | 0.00 | 0.00 | 75 | 1009.7 |
| 20260506050523 | 63 | 133 | 4.0 | 14.0 | 0.00 | 0.00 | 0.00 | 75 | 1009.8 |
| 20260506045024 | 64 | 178 | 4.0 | 12.0 | 0.00 | 0.00 | 0.00 | 74 | 1009.8 |
| 20260506044520 | 64 | 177 | 4.0 | 12.0 | 0.00 | 0.00 | 0.00 | 74 | 1009.8 |
| 20260506044021 | 64 | 197 | 3.0 | 12.0 | 0.00 | 0.00 | 0.00 | 73 | 1009.9 |
| 20260506043522 | 64 | 222 | 4.0 | 9.0 | 0.00 | 0.00 | 0.00 | 72 | 1010.0 |
| 20260506043518 | 64 | 187 | 3.0 | 8.0 | 0.00 | 0.00 | 0.00 | 73 | 1009.9 |
| 20260506042519 | 64 | 172 | 4.0 | 11.0 | 0.00 | 0.00 | 0.00 | 72 | 1010.0 |
| 20260506042018 | 64 | 182 | 3.0 | 11.0 | 0.00 | 0.00 | 0.00 | 72 | 1009.9 |
| 20260506041520 | 63 | 88 | 3.0 | 11.0 | 0.00 | 0.00 | 0.00 | 72 | 1009.8 |
| 20260506041018 | 64 | 200 | 3.0 | 11.0 | 0.00 | 0.00 | 0.00 | 71 | 1010.0 |
| 20260506040520 | 64 | 217 | 3.0 | 15.0 | 0.00 | 0.00 | 0.00 | 71 | 1009.8 |
| 20260506040017 | 64 | 213 | 3.0 | 15.0 | 0.00 | 0.00 | 0.00 | 70 | 1009.9 |
| 20260506035516 | 64 | 155 | 2.0 | 10.0 | 0.00 | 0.00 | 0.00 | 70 | 1009.9 |
| 20260506035014 | 64 | 205 | 2.0 | 8.0 | 0.00 | 0.00 | 0.00 | 70 | 1010.0 |
| 20260506034515 | 64 | 178 | 3.0 | 12.0 | 0.00 | 0.00 | 0.00 | 69 | 1010.0 |
| 20260506034015 | 64 | 216 | 2.0 | 12.0 | 0.00 | 0.00 | 0.00 | 69 | 1010.0 |
| 20260506033515 | 64 | 262 | 2.0 | 9.0 | 0.00 | 0.00 | 0.00 | 69 | 1010.0 |
| 20260506033014 | 64 | 180 | 3.0 | 11.0 | 0.00 | 0.00 | 0.00 | 69 | 1010.1 |
| 20260506032515 | 64 | 110 | 3.0 | 11.0 | 0.00 | 0.00 | 0.00 | 69 | 1010.1 |
| 20260506032021 | 64 | 168 | 3.0 | 12.0 | 0.00 | 0.00 | 0.00 | 68 | 1010.0 |
| 20260506032015 | 64 | 189 | 3.0 | 10.0 | 0.00 | 0.00 | 0.00 | 69 | 1010.1 |
| 20260506031015 | 64 | 199 | 4.0 | 12.0 | 0.00 | 0.00 | 0.00 | 69 | 1009.9 |
| 20260506030521 | 64 | 185 | 3.0 | 10.0 | 0.00 | 0.00 | 0.00 | 69 | 1010.0 |
| 20260506030516 | 64 | 226 | 3.0 | 11.0 | 0.00 | 0.00 | 0.00 | 69 | 1010.1 |
| 20260506025522 | 64 | 228 | 2.0 | 10.0 | 0.00 | 0.00 | 0.00 | 69 | 1010.0 |
| 20260506025516 | 64 | 218 | 3.0 | 10.0 | 0.00 | 0.00 | 0.00 | 69 | 1010.0 |
| 20260506025014 | 64 | 199 | 3.0 | 10.0 | 0.00 | 0.00 | 0.00 | 69 | 1010.0 |
| 20260506024016 | 64 | 226 | 2.0 | 10.0 | 0.00 | 0.00 | 0.00 | 69 | 1009.9 |
| 20260506023516 | 64 | 133 | 3.0 | 6.0 | 0.00 | 0.00 | 0.00 | 68 | 1009.8 |
| 20260506023016 | 64 | 201 | 2.0 | 9.0 | 0.00 | 0.00 | 0.00 | 68 | 1009.9 |
| 20260506022515 | 64 | 232 | 2.0 | 11.0 | 0.00 | 0.00 | 0.00 | 68 | 1009.8 |
| 20260506022015 | 64 | 221 | 2.0 | 11.0 | 0.00 | 0.00 | 0.00 | 68 | 1009.9 |
| 20260506021515 | 64 | 191 | 2.0 | 7.0 | 0.00 | 0.00 | 0.00 | 68 | 1009.9 |
| 20260506021022 | 64 | 129 | 2.0 | 5.0 | 0.00 | 0.00 | 0.00 | 68 | 1009.9 |
| 20260506021015 | 64 | 193 | 2.0 | 7.0 | 0.00 | 0.00 | 0.00 | 68 | 1009.8 |
| 20260506020016 | 64 | 239 | 2.0 | 11.0 | 0.00 | 0.00 | 0.00 | 68 | 1009.8 |
| 20260506015515 | 64 | 199 | 3.0 | 11.0 | 0.00 | 0.00 | 0.00 | 68 | 1009.8 |
| 20260506015015 | 64 | 195 | 3.0 | 9.0 | 0.00 | 0.00 | 0.00 | 67 | 1009.8 |
| 20260506014515 | 64 | 233 | 3.0 | 8.0 | 0.00 | 0.00 | 0.00 | 67 | 1009.7 |
| 20260506014015 | 65 | 163 | 2.0 | 8.0 | 0.00 | 0.00 | 0.00 | 66 | 1009.8 |
| 20260506013522 | 65 | 243 | 3.0 | 10.0 | 0.00 | 0.00 | 0.00 | 65 | 1009.7 |
| 20260506013516 | 65 | 183 | 2.0 | 10.0 | 0.00 | 0.00 | 0.00 | 66 | 1009.7 |
| 20260506012517 | 65 | 201 | 2.0 | 10.0 | 0.00 | 0.00 | 0.00 | 64 | 1009.5 |
| 20260506012015 | 65 | 208 | 2.0 | 6.0 | 0.00 | 0.00 | 0.00 | 64 | 1009.6 |
| 20260506011516 | 65 | 189 | 3.0 | 7.0 | 0.00 | 0.00 | 0.00 | 64 | 1009.5 |
| 20260506011021 | 66 | 214 | 2.0 | 5.0 | 0.00 | 0.00 | 0.00 | 64 | 1009.4 |
| 20260506011014 | 66 | 230 | 2.0 | 7.0 | 0.00 | 0.00 | 0.00 | 64 | 1009.5 |